Starlink 31316

operational
NORAD ID: 59090 Int'l Des: 2024-041 Owner: SPXS Country: US Constellation: starlink
LEOCIRCULAR

Über Starlink 31316

Beschreibung wird geladen...

Live-Position

3D-Globus wird geladen...

Nächste Überflüge

Höhenverlauf

Altitude vs Time

uPlot chart will show altitude changes over time

Zweizeiliger Elementsatz

1 59090U 24041S 25350.12963412 .00004383 00000-0 16872-3 0 9992
2 59090 43.0039 15.7876 0001099 270.4013 89.6713 15.27575983101978
Epoch: 16. Dez. 2025 • Age: 25 hours

Aktueller Status

Höhe 495.6 km
Geschwindigkeit 7.62 km/s
Subsatellitenpunkt -43.16°S, 135.61°E
Startdatum 29. Feb. 2024
Alter 1.7 years
Typ internet

Technische Details

Klassifizierung Payload
Masse 730.00 kg
Trockenmasse 700.00 kg
Gesamtmasse 730.00 kg
Länge 0.30 m
Durchmesser 4.10 m
Spannweite 29.00 m
Form Box + pan
Hersteller SPXS
Bus-Typ Starlink V2M
Phasenstatus In Orbit
Besitzer/Staat SPXS/US

Große Konstellationen

Loading constellations...